STARLINK-35258 (65861 NORAD) Tracking and Keplerian Element Data

This shows tracking and keplerian element data for the satellite.

Feedback or suggestion? Click here.




ElementValue
Catalog65861
NameSTARLINK-35258
Epoch Orbit1202
Epoch Day354.13956566
Epoch Year2025
RAAN303.854
Inclination53.1623
Eccentricity0.0001372
Argument of Perigee92.3063
Mean Anonmoly267.8095
Mean Motion15.30185418
Decay Rate0.00017858
L11 65861U 25223H 25354.13956566 .00017858 00000+0 61389-3 0 9998
L22 65861 53.1623 303.8540 0001372 92.3063 267.8095 15.30185418 12025



Live tracking and technical data element details for STARLINK-35258 (NORAD 65861). STARLINK-35258 can be tracked NOW for your location showing map with azimuth and elevation plus other details from your city location.







IsCatalogInMostPopularTable: catalog: 65861, numindb: 8
Update: records affected: 1



GetName: 65861 STARLINK-35258

Hit Count: updated at: Sat, 11 Apr 2026 21:59:17 GMT